owner,sensor,date,latitude,longitude,vertical_datum,direction_of_sea_water_velocity,sea_water_speed,upward_sea_water_velocity,qcFlag 
TABS,ioos:station:wmo:42048:1,1995-07-01T00:00:00Z,27.9396,-96.8429,2.0,0.000210459,6.56,-99999.0,'11133222,11111222,99999999' 
TABS,ioos:station:wmo:42048:1,1995-07-01T00:30:00Z,27.9396,-96.8429,2.0,63.56318891,1.999049774,-99999.0,'11133222,11111222,99999999' 
TABS,ioos:station:wmo:42048:1,1995-07-01T01:00:00Z,27.9396,-96.8429,2.0,351.8317509,2.111421322,-99999.0,'11133222,11111222,99999999' 
TABS,ioos:station:wmo:42048:1,1995-07-01T01:30:00Z,27.9396,-96.8429,2.0,354.2515605,2.995062604,-99999.0,'11133222,11111222,99999999' 
TABS,ioos:station:wmo:42048:1,1995-07-01T02:00:00Z,27.9396,-96.8429,2.0,3.59897016,4.779424652,-99999.0,'11133222,11111222,99999999' 
TABS,ioos:station:wmo:42048:1,1995-07-01T02:30:00Z,27.9396,-96.8429,2.0,341.5378512,6.599674234,-99999.0,'11133222,11111222,99999999' 
TABS,ioos:station:wmo:42048:1,1995-07-01T03:00:00Z,27.9396,-96.8429,2.0,338.1767557,4.815080477,-99999.0,'11133222,11111222,99999999' 
TABS,ioos:station:wmo:42048:1,1995-07-01T03:30:00Z,27.9396,-96.8429,2.0,344.8190573,3.398602654,-99999.0,'11133222,11111222,99999999' 
TABS,ioos:station:wmo:42048:1,1995-07-01T04:00:00Z,27.9396,-96.8429,2.0,4.432868562,3.881610491,-99999.0,'11133222,11111222,99999999' 
TABS,ioos:station:wmo:42048:1,1995-07-01T04:30:00Z,27.9396,-96.8429,2.0,340.0592385,3.489197615,-99999.0,'11133222,11111222,99999999' 
TABS,ioos:station:wmo:42048:1,1995-07-01T05:00:00Z,27.9396,-96.8429,2.0,352.3552151,4.510088691,-99999.0,'11133222,11111222,99999999' 
TABS,ioos:station:wmo:42048:1,1995-07-01T05:30:00Z,27.9396,-96.8429,2.0,7.169556612,4.807587753,-99999.0,'11133222,11111222,99999999' 
TABS,ioos:station:wmo:42048:1,1995-07-01T06:00:00Z,27.9396,-96.8429,2.0,3.203713921,5.368388958,-99999.0,'11133222,11111222,99999999' 
TABS,ioos:station:wmo:42048:1,1995-07-01T06:30:00Z,27.9396,-96.8429,2.0,354.5253393,6.288688257,-99999.0,'11133222,11111222,99999999' 
TABS,ioos:station:wmo:42048:1,1995-07-01T07:00:00Z,27.9396,-96.8429,2.0,6.387312549,5.393477542,-99999.0,'11133222,11111222,99999999' 
TABS,ioos:station:wmo:42048:1,1995-07-01T07:30:00Z,27.9396,-96.8429,2.0,4.741744734,10.76684726,-99999.0,'11111222,11111222,99999999' 
TABS,ioos:station:wmo:42048:1,1995-07-01T08:00:00Z,27.9396,-96.8429,2.0,12.00335549,10.04972636,-99999.0,'11111222,11111222,99999999' 
TABS,ioos:station:wmo:42048:1,1995-07-01T08:30:00Z,27.9396,-96.8429,2.0,22.93949218,8.415515433,-99999.0,'11133222,11111222,99999999' 
TABS,ioos:station:wmo:42048:1,1995-07-01T09:00:00Z,27.9396,-96.8429,2.0,13.15851163,9.181051138,-99999.0,'11133222,11111222,99999999' 
TABS,ioos:station:wmo:42048:1,1995-07-01T09:30:00Z,27.9396,-96.8429,2.0,26.56519952,10.66604425,-99999.0,'11111222,11111222,99999999' 
TABS,ioos:station:wmo:42048:1,1995-07-01T10:00:00Z,27.9396,-96.8429,2.0,24.7940432,8.536913962,-99999.0,'11133222,11111222,99999999' 
TABS,ioos:station:wmo:42048:1,1995-07-01T10:30:00Z,27.9396,-96.8429,2.0,35.3732305,11.33186657,-99999.0,'11111222,11111222,99999999' 
TABS,ioos:station:wmo:42048:1,1995-07-01T11:00:00Z,27.9396,-96.8429,2.0,20.14776474,9.522709698,-99999.0,'11133222,11111222,99999999' 
TABS,ioos:station:wmo:42048:1,1995-07-01T11:30:00Z,27.9396,-96.8429,2.0,37.98719745,12.10430089,-99999.0,'11111222,11111222,99999999' 
TABS,ioos:station:wmo:42048:1,1995-07-01T12:00:00Z,27.9396,-96.8429,2.0,29.5769181,12.6826062,-99999.0,'11111222,11111222,99999999' 
TABS,ioos:station:wmo:42048:1,1995-07-01T12:30:00Z,27.9396,-96.8429,2.0,45.00010523,11.38441918,-99999.0,'11111222,11111222,99999999' 
TABS,ioos:station:wmo:42048:1,1995-07-01T13:00:00Z,27.9396,-96.8429,2.0,31.3314835,8.019438883,-99999.0,'11133222,11111222,99999999' 
TABS,ioos:station:wmo:42048:1,1995-07-01T13:30:00Z,27.9396,-96.8429,2.0,36.51536088,10.01619189,-99999.0,'11111222,11111222,99999999' 
TABS,ioos:station:wmo:42048:1,1995-07-01T14:00:00Z,27.9396,-96.8429,2.0,62.23318069,12.79312315,-99999.0,'11111222,11111222,99999999' 
TABS,ioos:station:wmo:42048:1,1995-07-01T14:30:00Z,27.9396,-96.8429,2.0,73.13517004,10.271772,-99999.0,'11111222,11111222,99999999' 
TABS,ioos:station:wmo:42048:1,1995-07-01T15:00:00Z,27.9396,-96.8429,2.0,82.59721789,6.907575552,-99999.0,'11133222,11111222,99999999' 
TABS,ioos:station:wmo:42048:1,1995-07-01T15:30:00Z,27.9396,-96.8429,2.0,73.70599065,7.449201299,-99999.0,'11133222,11111222,99999999' 
TABS,ioos:station:wmo:42048:1,1995-07-01T16:00:00Z,27.9396,-96.8429,2.0,105.4008732,8.961807853,-99999.0,'11133222,11111222,99999999' 
TABS,ioos:station:wmo:42048:1,1995-07-01T16:30:00Z,27.9396,-96.8429,2.0,116.5169223,5.330787934,-99999.0,'11133222,11111222,99999999' 
TABS,ioos:station:wmo:42048:1,1995-07-01T17:00:00Z,27.9396,-96.8429,2.0,97.16934615,4.807587753,-99999.0,'11133222,11111222,99999999' 
TABS,ioos:station:wmo:42048:1,1995-07-01T17:30:00Z,27.9396,-96.8429,2.0,148.5357195,6.283947804,-99999.0,'11133222,11111222,99999999' 
TABS,ioos:station:wmo:42048:1,1995-07-01T18:00:00Z,27.9396,-96.8429,2.0,164.0725797,4.336473221,-99999.0,'11133222,11111222,99999999' 
TABS,ioos:station:wmo:42048:1,1995-07-01T18:30:00Z,27.9396,-96.8429,2.0,165.0923436,4.625689138,-99999.0,'11133222,11111222,99999999' 
TABS,ioos:station:wmo:42048:1,1995-07-01T19:00:00Z,27.9396,-96.8429,2.0,187.1840401,2.39883305,-99999.0,'11133222,11111222,99999999' 
TABS,ioos:station:wmo:42048:1,1995-07-01T19:30:00Z,27.9396,-96.8429,2.0,179.9997895,4.47,-99999.0,'11133222,11111222,99999999' 
TABS,ioos:station:wmo:42048:1,1995-07-01T20:00:00Z,27.9396,-96.8429,2.0,220.5784052,2.751763071,-99999.0,'11133222,11111222,99999999' 
TABS,ioos:station:wmo:42048:1,1995-07-01T20:30:00Z,27.9396,-96.8429,2.0,205.3372026,6.262427644,-99999.0,'11133222,11111222,99999999' 
TABS,ioos:station:wmo:42048:1,1995-07-01T21:00:00Z,27.9396,-96.8429,2.0,222.7705095,5.271935129,-99999.0,'11133222,11111222,99999999' 
TABS,ioos:station:wmo:42048:1,1995-07-01T21:30:00Z,27.9396,-96.8429,2.0,246.4888355,7.470133868,-99999.0,'11133222,11111222,99999999' 
TABS,ioos:station:wmo:42048:1,1995-07-01T22:00:00Z,27.9396,-96.8429,2.0,257.8860848,8.52992966,-99999.0,'11133222,11111222,99999999' 
TABS,ioos:station:wmo:42048:1,1995-07-01T22:30:00Z,27.9396,-96.8429,2.0,287.9822208,11.5964348,-99999.0,'11111222,11111222,99999999' 
TABS,ioos:station:wmo:42048:1,1995-07-01T23:00:00Z,27.9396,-96.8429,2.0,306.3812344,14.06051208,-99999.0,'11111222,11111222,99999999' 
TABS,ioos:station:wmo:42048:1,1995-07-01T23:30:00Z,27.9396,-96.8429,2.0,308.9768396,16.10488435,-99999.0,'11111222,11111222,99999999' 
TABS,ioos:station:wmo:42048:1,1995-07-02T00:00:00Z,27.9396,-96.8429,2.0,331.8651456,14.52647927,-99999.0,'11111222,11111222,99999999' 
TABS,ioos:station:wmo:42048:1,1995-07-02T00:30:00Z,27.9396,-96.8429,2.0,343.487401,16.78216315,-99999.0,'11111222,11111222,99999999' 
TABS,ioos:station:wmo:42048:1,1995-07-02T01:00:00Z,27.9396,-96.8429,2.0,353.7457856,19.1841862,-99999.0,'11111222,11111222,99999999' 
TABS,ioos:station:wmo:42048:1,1995-07-02T01:30:00Z,27.9396,-96.8429,2.0,0.000210459,18.48,-99999.0,'11111222,11111222,99999999' 
TABS,ioos:station:wmo:42048:1,1995-07-02T02:00:00Z,27.9396,-96.8429,2.0,1.774417927,19.37929049,-99999.0,'11111222,11111222,99999999' 
TABS,ioos:station:wmo:42048:1,1995-07-02T02:30:00Z,27.9396,-96.8429,2.0,9.064379171,20.81999039,-99999.0,'11111222,11111222,99999999' 
TABS,ioos:station:wmo:42048:1,1995-07-02T03:00:00Z,27.9396,-96.8429,2.0,9.309122599,18.42261654,-99999.0,'11111222,11111222,99999999' 
TABS,ioos:station:wmo:42048:1,1995-07-02T03:30:00Z,27.9396,-96.8429,2.0,10.6325386,19.40312604,-99999.0,'11111222,11111222,99999999' 
TABS,ioos:station:wmo:42048:1,1995-07-02T04:00:00Z,27.9396,-96.8429,2.0,19.17593098,21.76777664,-99999.0,'11111222,11111222,99999999' 
TABS,ioos:station:wmo:42048:1,1995-07-02T04:30:00Z,27.9396,-96.8429,2.0,23.29506582,21.08915598,-99999.0,'11111222,11111222,99999999' 
TABS,ioos:station:wmo:42048:1,1995-07-02T05:00:00Z,27.9396,-96.8429,2.0,25.11729587,21.06154078,-99999.0,'11111222,11111222,99999999' 
TABS,ioos:station:wmo:42048:1,1995-07-02T05:30:00Z,27.9396,-96.8429,2.0,25.88246346,22.51880325,-99999.0,'11111222,11111222,99999999' 
TABS,ioos:station:wmo:42048:1,1995-07-02T06:00:00Z,27.9396,-96.8429,2.0,25.11729587,21.06154078,-99999.0,'11111222,11111222,99999999' 
TABS,ioos:station:wmo:42048:1,1995-07-02T06:30:00Z,27.9396,-96.8429,2.0,30.69361321,22.17672879,-99999.0,'11111222,11111222,99999999' 
TABS,ioos:station:wmo:42048:1,1995-07-02T07:00:00Z,27.9396,-96.8429,2.0,32.41796605,22.23509163,-99999.0,'11111222,11111222,99999999' 
TABS,ioos:station:wmo:42048:1,1995-07-02T07:30:00Z,27.9396,-96.8429,2.0,34.47088853,24.22323265,-99999.0,'11111222,11111222,99999999' 
TABS,ioos:station:wmo:42048:1,1995-07-02T08:00:00Z,27.9396,-96.8429,2.0,34.05109228,25.53890366,-99999.0,'11111222,11111222,99999999' 
TABS,ioos:station:wmo:42048:1,1995-07-02T08:30:00Z,27.9396,-96.8429,2.0,37.14400611,24.67628213,-99999.0,'11111222,11111222,99999999' 
TABS,ioos:station:wmo:42048:1,1995-07-02T09:00:00Z,27.9396,-96.8429,2.0,36.86147731,26.8220003,-99999.0,'11111222,11111222,99999999' 
TABS,ioos:station:wmo:42048:1,1995-07-02T09:30:00Z,27.9396,-96.8429,2.0,38.94789194,27.96638876,-99999.0,'11111222,11111222,99999999' 
TABS,ioos:station:wmo:42048:1,1995-07-02T10:00:00Z,27.9396,-96.8429,2.0,36.2813887,29.20154106,-99999.0,'11111222,11111222,99999999' 
TABS,ioos:station:wmo:42048:1,1995-07-02T10:30:00Z,27.9396,-96.8429,2.0,35.349159,31.42306955,-99999.0,'11111222,11111222,99999999' 
TABS,ioos:station:wmo:42048:1,1995-07-02T11:00:00Z,27.9396,-96.8429,2.0,38.0351964,29.50610106,-99999.0,'11111222,11111222,99999999' 
TABS,ioos:station:wmo:42048:1,1995-07-02T11:30:00Z,27.9396,-96.8429,2.0,40.65166785,33.38669495,-99999.0,'11111222,11111222,99999999' 
TABS,ioos:station:wmo:42048:1,1995-07-02T12:00:00Z,27.9396,-96.8429,2.0,34.27908613,40.74765515,-99999.0,'11111222,11111222,99999999' 
TABS,ioos:station:wmo:42048:1,1995-07-02T12:30:00Z,27.9396,-96.8429,2.0,35.44895218,45.72606368,-99999.0,'11111222,11111222,99999999' 
TABS,ioos:station:wmo:42048:1,1995-07-02T13:00:00Z,27.9396,-96.8429,2.0,33.791385,45.54373063,-99999.0,'11111222,11111222,99999999' 
TABS,ioos:station:wmo:42048:1,1995-07-02T13:30:00Z,27.9396,-96.8429,2.0,27.58335291,45.05046615,-99999.0,'11111222,11111222,99999999' 
TABS,ioos:station:wmo:42048:1,1995-07-02T14:00:00Z,27.9396,-96.8429,2.0,25.52862804,44.25008249,-99999.0,'11111222,11111222,99999999' 
TABS,ioos:station:wmo:42048:1,1995-07-02T14:30:00Z,27.9396,-96.8429,2.0,18.56131783,43.07032621,-99999.0,'11111222,11111222,99999999' 
TABS,ioos:station:wmo:42048:1,1995-07-02T15:00:00Z,27.9396,-96.8429,2.0,25.99034611,40.11707866,-99999.0,'11111222,11111222,99999999' 
TABS,ioos:station:wmo:42048:1,1995-07-02T15:30:00Z,27.9396,-96.8429,2.0,21.7991134,43.3282933,-99999.0,'11111222,11111222,99999999' 
TABS,ioos:station:wmo:42048:1,1995-07-02T16:00:00Z,27.9396,-96.8429,2.0,25.8038404,40.38695334,-99999.0,'11111222,11111222,99999999' 
TABS,ioos:station:wmo:42048:1,1995-07-02T16:30:00Z,27.9396,-96.8429,2.0,29.79001877,47.38128322,-99999.0,'11111222,11111222,99999999' 
TABS,ioos:station:wmo:42048:1,1995-07-02T17:00:00Z,27.9396,-96.8429,2.0,40.53123646,51.36483233,-99999.0,'11111222,11111222,99999999' 
TABS,ioos:station:wmo:42048:1,1995-07-02T17:30:00Z,27.9396,-96.8429,2.0,52.49638164,48.45496466,-99999.0,'11111222,11111222,99999999' 
TABS,ioos:station:wmo:42048:1,1995-07-02T18:00:00Z,27.9396,-96.8429,2.0,63.76085944,47.18179734,-99999.0,'11111222,11111222,99999999' 
TABS,ioos:station:wmo:42048:1,1995-07-02T18:30:00Z,27.9396,-96.8429,2.0,63.77464758,44.5119512,-99999.0,'11111222,11111222,99999999' 
TABS,ioos:station:wmo:42048:1,1995-07-02T19:00:00Z,27.9396,-96.8429,2.0,62.90093961,43.18034854,-99999.0,'11111222,11111222,99999999' 
TABS,ioos:station:wmo:42048:1,1995-07-02T19:30:00Z,27.9396,-96.8429,2.0,58.7659573,42.52354759,-99999.0,'11111222,11111222,99999999' 
TABS,ioos:station:wmo:42048:1,1995-07-02T20:00:00Z,27.9396,-96.8429,2.0,53.67685718,37.73171743,-99999.0,'11111222,11111222,99999999' 
TABS,ioos:station:wmo:42048:1,1995-07-02T20:30:00Z,27.9396,-96.8429,2.0,53.74346871,33.25990529,-99999.0,'11111222,11111222,99999999' 
TABS,ioos:station:wmo:42048:1,1995-07-02T21:00:00Z,27.9396,-96.8429,2.0,35.53780515,38.45239394,-99999.0,'11111222,11111222,99999999' 
TABS,ioos:station:wmo:42048:1,1995-07-02T21:30:00Z,27.9396,-96.8429,2.0,36.87571898,40.2280002,-99999.0,'11111222,11111222,99999999' 
TABS,ioos:station:wmo:42048:1,1995-07-02T22:00:00Z,27.9396,-96.8429,2.0,33.93824865,38.43831032,-99999.0,'11111222,11111222,99999999' 
TABS,ioos:station:wmo:42048:1,1995-07-02T22:30:00Z,27.9396,-96.8429,2.0,39.11306137,34.95278101,-99999.0,'11111222,11111222,99999999' 
TABS,ioos:station:wmo:42048:1,1995-07-02T23:00:00Z,27.9396,-96.8429,2.0,33.08348494,38.76462305,-99999.0,'11111222,11111222,99999999' 
TABS,ioos:station:wmo:42048:1,1995-07-02T23:30:00Z,27.9396,-96.8429,2.0,31.25057519,40.78801907,-99999.0,'11111222,11111222,99999999' 
TABS,ioos:station:wmo:42048:1,1995-07-03T00:00:00Z,27.9396,-96.8429,2.0,28.22253304,41.59484824,-99999.0,'11111222,11111222,99999999' 
TABS,ioos:station:wmo:42048:1,1995-07-03T00:30:00Z,27.9396,-96.8429,2.0,21.73186627,44.26608747,-99999.0,'11111222,11111222,99999999' 
TABS,ioos:station:wmo:42048:1,1995-07-03T01:00:00Z,27.9396,-96.8429,2.0,19.56823291,42.6959354,-99999.0,'11111222,11111222,99999999' 
TABS,ioos:station:wmo:42048:1,1995-07-03T01:30:00Z,27.9396,-96.8429,2.0,24.24254306,42.81562799,-99999.0,'11111222,11111222,99999999' 
TABS,ioos:station:wmo:42048:1,1995-07-03T02:00:00Z,27.9396,-96.8429,2.0,20.26149264,47.32855481,-99999.0,'11111222,11111222,99999999' 
TABS,ioos:station:wmo:42048:1,1995-07-03T02:30:00Z,27.9396,-96.8429,2.0,29.79083596,44.98493192,-99999.0,'11111222,11111222,99999999' 
TABS,ioos:station:wmo:42048:1,1995-07-03T03:00:00Z,27.9396,-96.8429,2.0,31.03281473,42.77177808,-99999.0,'11111222,11111222,99999999' 
TABS,ioos:station:wmo:42048:1,1995-07-03T03:30:00Z,27.9396,-96.8429,2.0,35.57854704,42.50479738,-99999.0,'11111222,11111222,99999999' 
TABS,ioos:station:wmo:42048:1,1995-07-03T04:00:00Z,27.9396,-96.8429,2.0,35.49508146,42.09211921,-99999.0,'11111222,11111222,99999999' 
TABS,ioos:station:wmo:42048:1,1995-07-03T04:30:00Z,27.9396,-96.8429,2.0,32.50041446,43.8113467,-99999.0,'11111222,11111222,99999999' 
TABS,ioos:station:wmo:42048:1,1995-07-03T05:00:00Z,27.9396,-96.8429,2.0,34.44251568,43.72523871,-99999.0,'11111222,11111222,99999999' 
TABS,ioos:station:wmo:42048:1,1995-07-03T05:30:00Z,27.9396,-96.8429,2.0,35.14155984,45.55272659,-99999.0,'11111222,11111222,99999999' 
TABS,ioos:station:wmo:42048:1,1995-07-03T06:00:00Z,27.9396,-96.8429,2.0,31.92834764,45.64567011,-99999.0,'11111222,11111222,99999999' 
TABS,ioos:station:wmo:42048:1,1995-07-03T06:30:00Z,27.9396,-96.8429,2.0,35.73360215,51.02603649,-99999.0,'11111222,11111222,99999999' 
TABS,ioos:station:wmo:42048:1,1995-07-03T07:00:00Z,27.9396,-96.8429,2.0,36.9941293,54.4761278,-99999.0,'11111222,11111222,99999999' 
TABS,ioos:station:wmo:42048:1,1995-07-03T07:30:00Z,27.9396,-96.8429,2.0,40.19761042,55.4054149,-99999.0,'11111222,11111222,99999999' 
TABS,ioos:station:wmo:42048:1,1995-07-03T08:00:00Z,27.9396,-96.8429,2.0,37.66276437,56.08736845,-99999.0,'11111222,11111222,99999999' 
TABS,ioos:station:wmo:42048:1,1995-07-03T08:30:00Z,27.9396,-96.8429,2.0,36.63464565,57.93448886,-99999.0,'11111222,11111222,99999999' 
TABS,ioos:station:wmo:42048:1,1995-07-03T09:00:00Z,27.9396,-96.8429,2.0,37.15694665,58.70873615,-99999.0,'11111222,11111222,99999999' 
TABS,ioos:station:wmo:42048:1,1995-07-03T09:30:00Z,27.9396,-96.8429,2.0,34.90052634,62.50092159,-99999.0,'11111222,11111222,99999999' 
TABS,ioos:station:wmo:42048:1,1995-07-03T10:00:00Z,27.9396,-96.8429,2.0,40.69011946,64.45120092,-99999.0,'11111222,11111222,99999999' 
TABS,ioos:station:wmo:42048:1,1995-07-03T10:30:00Z,27.9396,-96.8429,2.0,38.13959467,67.06846427,-99999.0,'11111222,11111222,99999999' 
TABS,ioos:station:wmo:42048:1,1995-07-03T11:00:00Z,27.9396,-96.8429,2.0,41.18603931,63.35566904,-99999.0,'11111222,11111222,99999999' 
TABS,ioos:station:wmo:42048:1,1995-07-03T11:30:00Z,27.9396,-96.8429,2.0,39.97173942,64.94313898,-99999.0,'11111222,11111222,99999999' 
TABS,ioos:station:wmo:42048:1,1995-07-03T12:00:00Z,27.9396,-96.8429,2.0,41.02131125,66.74912509,-99999.0,'11111222,11111222,99999999' 
TABS,ioos:station:wmo:42048:1,1995-07-03T12:30:00Z,27.9396,-96.8429,2.0,42.46675262,71.50888686,-99999.0,'11111222,11111222,99999999' 
TABS,ioos:station:wmo:42048:1,1995-07-03T13:00:00Z,27.9396,-96.8429,2.0,42.23060105,74.04986023,-99999.0,'11111222,11111222,99999999' 
TABS,ioos:station:wmo:42048:1,1995-07-03T13:30:00Z,27.9396,-96.8429,2.0,43.17523879,79.27151885,-99999.0,'11111222,11111222,99999999' 
TABS,ioos:station:wmo:42048:1,1995-07-03T14:00:00Z,27.9396,-96.8429,2.0,44.6967933,78.80815503,-99999.0,'11111222,11111222,99999999' 
TABS,ioos:station:wmo:42048:1,1995-07-03T14:30:00Z,27.9396,-96.8429,2.0,42.62059167,76.12911992,-99999.0,'11111222,11111222,99999999' 
TABS,ioos:station:wmo:42048:1,1995-07-03T15:00:00Z,27.9396,-96.8429,2.0,42.21701898,78.05766202,-99999.0,'11111222,11111222,99999999' 
TABS,ioos:station:wmo:42048:1,1995-07-03T15:30:00Z,27.9396,-96.8429,2.0,41.71147372,77.03887136,-99999.0,'11111222,11111222,99999999' 
TABS,ioos:station:wmo:42048:1,1995-07-03T16:00:00Z,27.9396,-96.8429,2.0,42.30720265,76.15464529,-99999.0,'11111222,11111222,99999999' 
TABS,ioos:station:wmo:42048:1,1995-07-03T16:30:00Z,27.9396,-96.8429,2.0,41.82028255,75.97539075,-99999.0,'11111222,11111222,99999999' 
TABS,ioos:station:wmo:42048:1,1995-07-03T17:00:00Z,27.9396,-96.8429,2.0,41.14476252,78.34795785,-99999.0,'11111222,11111222,99999999' 
TABS,ioos:station:wmo:42048:1,1995-07-03T17:30:00Z,27.9396,-96.8429,2.0,38.79206955,79.90495604,-99999.0,'11111222,11111222,99999999' 
TABS,ioos:station:wmo:42048:1,1995-07-03T18:00:00Z,27.9396,-96.8429,2.0,38.53161168,82.28659976,-99999.0,'11111222,11111222,99999999' 
TABS,ioos:station:wmo:42048:1,1995-07-03T18:30:00Z,27.9396,-96.8429,2.0,38.41118338,86.33523093,-99999.0,'11111222,11111222,99999999' 
TABS,ioos:station:wmo:42048:1,1995-07-03T19:00:00Z,27.9396,-96.8429,2.0,36.99260722,83.19619042,-99999.0,'11111222,11111222,99999999' 
TABS,ioos:station:wmo:42048:1,1995-07-03T19:30:00Z,27.9396,-96.8429,2.0,35.06114154,83.00136143,-99999.0,'11111222,11111222,99999999' 
TABS,ioos:station:wmo:42048:1,1995-07-03T20:00:00Z,27.9396,-96.8429,2.0,34.40566427,85.95749706,-99999.0,'11111222,11111222,99999999' 
TABS,ioos:station:wmo:42048:1,1995-07-03T20:30:00Z,27.9396,-96.8429,2.0,36.82738427,86.00202381,-99999.0,'11111222,11111222,99999999' 
TABS,ioos:station:wmo:42048:1,1995-07-03T21:00:00Z,27.9396,-96.8429,2.0,36.66485196,84.33654072,-99999.0,'11111222,11111222,99999999' 
TABS,ioos:station:wmo:42048:1,1995-07-03T21:30:00Z,27.9396,-96.8429,2.0,36.94751881,85.76207845,-99999.0,'11111222,11111222,99999999' 
TABS,ioos:station:wmo:42048:1,1995-07-03T22:00:00Z,27.9396,-96.8429,2.0,35.42501859,87.39979405,-99999.0,'11111222,11111222,99999999' 
TABS,ioos:station:wmo:42048:1,1995-07-03T22:30:00Z,27.9396,-96.8429,2.0,35.84837967,90.07231872,-99999.0,'11111222,11111222,99999999' 
TABS,ioos:station:wmo:42048:1,1995-07-03T23:00:00Z,27.9396,-96.8429,2.0,34.85243171,89.69960814,-99999.0,'11111222,11111222,99999999' 
TABS,ioos:station:wmo:42048:1,1995-07-03T23:30:00Z,27.9396,-96.8429,2.0,35.08421049,91.77457437,-99999.0,'11111222,11111222,99999999' 
TABS,ioos:station:wmo:42048:1,1995-07-04T00:00:00Z,27.9396,-96.8429,2.0,36.6526075,94.34467924,-99999.0,'11111222,11111222,99999999' 
TABS,ioos:station:wmo:42048:1,1995-07-04T00:30:00Z,27.9396,-96.8429,2.0,33.59072174,92.65171342,-99999.0,'11111222,11111222,99999999' 
TABS,ioos:station:wmo:42048:1,1995-07-04T01:00:00Z,27.9396,-96.8429,2.0,34.62580525,95.96760808,-99999.0,'11111222,11111222,99999999' 
TABS,ioos:station:wmo:42048:1,1995-07-04T01:30:00Z,27.9396,-96.8429,2.0,35.39898778,99.79889078,-99999.0,'11111222,11111222,99999999' 
TABS,ioos:station:wmo:42048:1,1995-07-04T02:00:00Z,27.9396,-96.8429,2.0,33.60105905,103.3962417,-99999.0,'11111222,11111222,99999999' 
TABS,ioos:station:wmo:42048:1,1995-07-04T02:30:00Z,27.9396,-96.8429,2.0,33.64330348,101.6571655,-99999.0,'11111222,11111222,99999999' 
TABS,ioos:station:wmo:42048:1,1995-07-04T03:00:00Z,27.9396,-96.8429,2.0,33.82710059,103.3076594,-99999.0,'11111222,11111222,99999999' 
TABS,ioos:station:wmo:42048:1,1995-07-04T03:30:00Z,27.9396,-96.8429,2.0,31.16074741,104.8239839,-99999.0,'11111222,11111222,99999999' 
TABS,ioos:station:wmo:42048:1,1995-07-04T04:00:00Z,27.9396,-96.8429,2.0,33.32324072,103.0654103,-99999.0,'11111222,11111222,99999999' 
TABS,ioos:station:wmo:42048:1,1995-07-04T04:30:00Z,27.9396,-96.8429,2.0,36.11162277,103.6550804,-99999.0,'11111222,11111222,99999999' 
TABS,ioos:station:wmo:42048:1,1995-07-04T05:00:00Z,27.9396,-96.8429,2.0,35.03071271,109.5444403,-99999.0,'11111222,11111222,99999999' 
TABS,ioos:station:wmo:42048:1,1995-07-04T05:30:00Z,27.9396,-96.8429,2.0,36.35177779,112.1065859,-99999.0,'11111222,11111222,99999999' 
TABS,ioos:station:wmo:42048:1,1995-07-04T06:00:00Z,27.9396,-96.8429,2.0,36.87002189,111.75,-99999.0,'11111222,11111222,99999999' 
TABS,ioos:station:wmo:42048:1,1995-07-04T06:30:00Z,27.9396,-96.8429,2.0,37.59719837,112.8330873,-99999.0,'11111222,11111222,99999999' 
TABS,ioos:station:wmo:42048:1,1995-07-04T07:00:00Z,27.9396,-96.8429,2.0,37.88827831,110.6294703,-99999.0,'11111222,11111222,99999999' 
TABS,ioos:station:wmo:42048:1,1995-07-04T07:30:00Z,27.9396,-96.8429,2.0,38.32648935,112.4423274,-99999.0,'11111222,11111222,99999999' 
TABS,ioos:station:wmo:42048:1,1995-07-04T08:00:00Z,27.9396,-96.8429,2.0,41.65996502,108.4989309,-99999.0,'11111222,11111222,99999999' 
TABS,ioos:station:wmo:42048:1,1995-07-04T08:30:00Z,27.9396,-96.8429,2.0,46.69119142,92.96846455,-99999.0,'11111222,11111222,99999999' 
TABS,ioos:station:wmo:42048:1,1995-07-04T09:00:00Z,27.9396,-96.8429,2.0,49.44304734,87.08025034,-99999.0,'11111222,11111222,99999999' 
TABS,ioos:station:wmo:42048:1,1995-07-04T09:30:00Z,27.9396,-96.8429,2.0,45.00010523,82.60421418,-99999.0,'11111222,11111222,99999999' 
TABS,ioos:station:wmo:42048:1,1995-07-04T10:00:00Z,27.9396,-96.8429,2.0,51.10434098,79.26354143,-99999.0,'11111222,11111222,99999999' 
TABS,ioos:station:wmo:42048:1,1995-07-04T10:30:00Z,27.9396,-96.8429,2.0,48.2705855,73.87154933,-99999.0,'11111222,11111222,99999999' 
TABS,ioos:station:wmo:42048:1,1995-07-04T11:00:00Z,27.9396,-96.8429,2.0,43.46032607,78.41817391,-99999.0,'11111222,11111222,99999999' 
TABS,ioos:station:wmo:42048:1,1995-07-04T11:30:00Z,27.9396,-96.8429,2.0,45.81163487,74.3880239,-99999.0,'11111222,11111222,99999999' 
TABS,ioos:station:wmo:42048:1,1995-07-04T12:00:00Z,27.9396,-96.8429,2.0,45.35182362,69.113919,-99999.0,'11111222,11111222,99999999' 
TABS,ioos:station:wmo:42048:1,1995-07-04T12:30:00Z,27.9396,-96.8429,2.0,45.17436152,69.74933548,-99999.0,'11111222,11111222,99999999' 
TABS,ioos:station:wmo:42048:1,1995-07-04T13:00:00Z,27.9396,-96.8429,2.0,38.32942761,72.55953693,-99999.0,'11111222,11111222,99999999' 
TABS,ioos:station:wmo:42048:1,1995-07-04T13:30:00Z,27.9396,-96.8429,2.0,40.78273038,71.63296518,-99999.0,'11111222,11111222,99999999' 
TABS,ioos:station:wmo:42048:1,1995-07-04T14:00:00Z,27.9396,-96.8429,2.0,38.13959467,67.06846427,-99999.0,'11111222,11111222,99999999' 
TABS,ioos:station:wmo:42048:1,1995-07-04T14:30:00Z,27.9396,-96.8429,2.0,36.82424473,72.59402317,-99999.0,'11111222,11111222,99999999' 
TABS,ioos:station:wmo:42048:1,1995-07-04T15:00:00Z,27.9396,-96.8429,2.0,38.77449454,71.85569149,-99999.0,'11111222,11111222,99999999' 
TABS,ioos:station:wmo:42048:1,1995-07-04T15:30:00Z,27.9396,-96.8429,2.0,41.06785727,83.0046824,-99999.0,'11111222,11111222,99999999' 
TABS,ioos:station:wmo:42048:1,1995-07-04T16:00:00Z,27.9396,-96.8429,2.0,37.27484047,84.63811257,-99999.0,'11111222,11111222,99999999' 